{"data":{"norad_id":63445,"epoch":"2026-09-20T11:32:03.017472Z","epoch_age_seconds":157366,"freshness":"FRESH","line1":"1 63445U 25069N   26263.48059048  .00025868  00000+0  77385-3 0  9992","line2":"2 63445  53.1605 308.0499 0001196  85.1371 274.9768 15.34410452 83316","mean_motion":15.34410452,"eccentricity":0.0001196,"inclination_deg":53.1605,"raan_deg":308.0499,"arg_perigee_deg":85.1371,"mean_anomaly_deg":274.9768,"bstar":0.00077385,"rev_number":8331,"period_min":93.847118815116,"perigee_km":461.85401405948,"apogee_km":463.4903356141,"semimajor_km":6840.8091748368,"source":"CELESTRAK","updated_at":"2026-09-21T09:00:35.003620Z"}}